Regional Weather Roundup
Issued by NWS

Home | Current Version | Previous Version | Text Only | Print | Product List | Glossary Off
Versions: 1 2 3 4 5 6 7 8 9 10 11 12 13 14 15 16 17 18 19 20 21 22 23 24 25 26 27

000
ASUS45 KPSR 230310
RWRAZ

ARIZONA HOURLY REGIONAL WEATHER ROUNDUP
NATIONAL WEATHER SERVICE PHOENIX AZ
800 PM MST MON JAN 22 2018

NOTE: FAIR INDICATES FEW OR NO CLOUDS BELOW 12,000 FEET WITH NO
SIGNIFICANT WEATHER AND/OR OBSTRUCTIONS TO VISIBILITY.

AZZ001>003-036-230400-
NORTHWEST ARIZONA

CITY           SKY/WX    TMP DP  RH WIND       PRES   REMARKS
BULLHEAD CITY  CLEAR     55  19  24 N15       30.20S
KINGMAN        CLEAR    N/A N/A N/A E9        30.22S
$$

AZZ004>008-015-016-018-230400-
NORTH CENTRAL ARIZONA

CITY           SKY/WX    TMP DP  RH WIND       PRES   REMARKS
GRAND CANYON   CLEAR     21  12  68 CALM      30.23S
WILLIAMS       CLEAR     23  10  58 SE6       30.18S WCI  16
PRESCOTT       CLEAR     31  17  56 S3        30.19R
FLAGSTAFF      CLEAR     19   7  59 CALM      30.21S
PAYSON         CLEAR     34  12  40 NE3       30.18S
PAGE           CLEAR     35  11  36 SE6       30.24S WCI  30
$$

AZZ009>014-017-230400-
NORTHEAST ARIZONA

CITY           SKY/WX    TMP DP  RH WIND       PRES   REMARKS
WINSLOW        CLEAR     23   3  42 SW6       30.25R WCI  16
SAINT JOHNS    PTCLDY    24  11  57 CALM      30.22S
WINDOW ROCK    CLEAR     17  10  74 S3        30.23S
SHOW LOW       CLEAR     23  14  68 E5        30.23S WCI  17
$$

AZZ540-542>544-546-548-230400-
GREATER PHOENIX AREA

CITY           SKY/WX    TMP DP  RH WIND       PRES   REMARKS
PHOENIX        PTCLDY    56  18  22 W5        30.13S
BUCKEYE        CLEAR     46  19  34 N6        30.16S
LUKE AFB       CLEAR     49  23  35 S5        30.13S
DEER VALLEY    CLEAR     46  22  38 CALM      30.14S
SCOTTSDALE     CLEAR     51  21  30 N3        30.16R
MESA-FALCON    PTCLDY    52  21  30 SE5       30.15R
CHANDLER       CLEAR     52  19  28 VRB5      30.14S
$$

AZZ539-553-230400-
SOUTHWEST MARICOPA COUNTY AND PINAL COUNTY

CITY           SKY/WX    TMP DP  RH WIND       PRES   REMARKS
CASA GRANDE    NOT AVBL
GILA BEND      FAIR      53  17  23 CALM      30.14F
$$

AZZ503-504-507>509-230400-
SOUTHEAST ARIZONA

CITY           SKY/WX    TMP DP  RH WIND       PRES   REMARKS
TUCSON         CLEAR     47  17  30 W5        30.15R
DAVIS-MONTHAN  CLEAR     44  13  28 N3        30.13R
RYAN FIELD     CLEAR     45  19  36 W7        30.15
NOGALES        CLEAR     47   5  18 CALM      30.11R
SIERRA VISTA   CLEAR     38   7  28 CALM      30.16S
DOUGLAS        CLEAR     36   6  28 N7        30.15R WCI  30
SAFFORD        CLEAR     37  12  35 E7        30.17S WCI  32
$$

AZZ532-230400-
SOUTHWEST ARIZONA

CITY           SKY/WX    TMP DP  RH WIND       PRES   REMARKS
YUMA           CLEAR     57  18  21 N8        30.17S
$$

CAZ041-043-047-048-061-525>527-560>570-230400-
SOUTHERN CALIFORNIA

CITY           SKY/WX    TMP DP  RH WIND       PRES   REMARKS
DOWNTOWN L.A.  CLEAR     58  36  43 CALM      30.15S
L.A. AIRPORT   CLEAR     60  46  59 SW7       30.16S
SAN DIEGO      CLEAR     59  44  57 CALM      30.17F
BURBANK        CLEAR     59  37  44 CALM      30.15S
ONTARIO        CLEAR     60  19  20 CALM      30.15S
RIVERSIDE      CLEAR     59  20  22 CALM      30.17R
PALM SPRINGS   CLEAR     59  25  27 CALM      30.20S
EL CENTRO NAS  CLEAR     56  13  18 W5        30.19F
IMPERIAL       CLEAR     54  17  23 SW3       30.17F
BLYTHE         CLEAR     53  20  27 CALM      30.18S
NEEDLES        CLEAR     56  19  23 N7        30.20S
$$

NVZ020-UTZ003-230400-
SOUTHERN NEVADA-UTAH

CITY           SKY/WX    TMP DP  RH WIND       PRES   REMARKS
LAS VEGAS      PTCLDY    50  23  34 CALM      30.23S
SALT LAKE CITY CLOUDY    35  19  52 SE5       30.30R WCI  31
$$

NMZ009-TXZ055-230400-
NEW MEXICO-WEST TEXAS

CITY           SKY/WX    TMP DP  RH WIND       PRES   REMARKS
ALBUQUERQUE    CLEAR     35   9  33 N9        30.23R WCI  28
EL PASO        MOCLDY    41   5  22 NE5       30.18S
$$


........................KEY........................
SKY/WX - SKY CONDITION/WEATHER
TMP    - TEMPERATURE IN FAHRENHEIT
DP     - DEW POINT IN FAHRENHEIT
RH     - RELATIVE HUMIDITY IN PERCENT
WIND   - DIRECTION AND SPEED IN MILES PER HOUR (MPH)
VRB    - VARIABLE WIND DIRECTION
PRES   - MEAN SEA LEVEL PRESSURE IN INCHES OF MERCURY
         F - FALLING PRESSURE   R - RISING PRESSURE
         S - STEADY PRESSURE
VSB    - VISIBILITY IN MILES
HX     - HEAT INDEX IN FAHRENHEIT
WCI    - WIND CHILL INDEX IN FAHRENHEIT
TC     - TEMPERATURE IN CELSIUS WHICH IS ALSO KNOWN AS
         TEMPERATURE IN CENTIGRADE
AFB    - AIR FORCE BASE
         LUKE AFB IS LUKE AIR FORCE BASE
         DAVIS-MONTHAN IS DAVIS-MONTHAN AIR FORCE BASE
NAS    - NAVAL AIR STATION
         EL CENTRO NAS IS EL CENTRO NAVAL AIR STATION
N/A    - NOT AVAILABLE





USA.gov is the U.S. government's official web portal to all federal, state and local government web resources and services.